SCP
1 1 1 1 1 1 1 0 0 0 0 0 0 1 1 1 1 1 1 1 1 1 1 1 0 0 1 1 0 0 0 0 0 0 0 1 1 1 1 1 1 1 0
1 1 1 1 1 1 1 0 0 0 0 0 0 1 1 1 1 1 1 1 1 1 1 1 0 0 0 0 0 0 0 0 0 0 0 0 0 1 1 1 1 1 1
1 1 1 1 1 1 1 1 0 0 0 0 1 1 1 1 1 1 1 1 1 1 1 1 0 0 0 0 0 0 0 0 0 0 0 0 0 1 1 1 1 1 1
1 1 1 1 1 1 1 1 1 0 0 1 1 1 1 1 1 1 1 1 1 1 1 0 0 0 0 0 0 0 0 0 0 0 0 0 0 1 1 1 1 1 1
1 1 1 1 1 1 1 1 1 1 1 1 1 1 1 1 1 1 1 1 1 1 1 0 0 0 0 0 0 0 0 0 0 0 0 0 0 1 1 1 1 1 1
1 1 1 1 1 1 1 1 0 0 0 1 1 1 1 1 1 1 1 1 1 1 0 0 0 0 0 0 0 0 0 0 0 0 1 1 1 1 1 1 1 1 1
1 1 1 1 1 1 0 0 0 0 0 0 1 1 1 1 1 1 1 1 0 0 0 0 0 0 0 0 0 0 0 0 0 1 1 1 1 1 1 1 1 1 1
1 1 1 1 1 1 0 0 0 0 0 0 1 1 1 1 1 1 0 0 0 0 0 0 0 0 0 0 0 0 0 0 0 1 1 1 1 1 1 1 1 1 1
2 2 1 1 1 0 0 0 0 0 0 0 0 0 0 0 0 0 1 1 1 0 0 0 0 0 0 0 0 0 0 0 0 1 1 1 2 2 2 1 1 1 1
3 2 1 0 0 0 0 0 0 0 0 0 0 0 0 0 0 0 1 1 1 1 0 0 0 0 0 0 0 0 0 0 0 1 1 2 2 2 2 2 2 1 1
3 2 1 1 0 0 0 0 0 0 0 0 0 0 0 0 0 1 1 1 1 1 1 1 1 1 1 1 1 1 0 0 1 1 2 2 2 2 2 2 2 1 1
2 1 1 1 1 0 1 1 0 0 0 0 0 0 0 1 1 1 1 2 2 1 1 1 1 1 1 1 1 1 1 0 1 1 2 3 3 3 2 2 2 1 1
1 1 1 1 1 1 1 1 1 1 1 1 1 1 1 1 1 2 2 2 2 2 2 1 1 1 1 1 1 1 1 0 1 2 2 3 3 3 3 2 2 1 1
1 1 1 1 1 1 1 1 1 1 1 1 2 2 2 2 2 3 3 3 2 2 2 2 2 1 1 1 1 1 1 0 1 2 2 3 3 3 3 3 2 1 1
1 1 1 2 2 3 3 2 2 2 2 2 3 3 3 3 3 4 4 4 3 3 3 3 3 2 2 2 1 1 1 1 1 1 2 2 3 3 3 3 2 1 1
2 2 2 3 4 4 4 3 3 4 3 4 4 5 5 4 4 4 5 5 4 4 4 4 4 3 3 3 2 2 1 1 1 1 2 2 2 3 3 3 2 2 2
4 3 4 4 5 5 5 4 4 4 4 5 6 7 7 5 5 5 5 5 5 5 5 5 4 4 4 3 3 2 2 2 1 2 2 2 2 2 2 2 2 2 2
6 6 5 5 6 6 6 6 5 5 5 6 7 8 8 6 5 5 5 5 6 6 5 5 5 5 4 4 3 3 2 2 2 2 2 2 2 2 2 1 2 2 2
9 8 7 7 8 10 9 8 7 7 7 8 9 10 9 7 6 6 6 6 6 6 6 5 5 5 4 3 3 2 2 2 2 2 2 1 1 1 1 1 1 1 1
10 10 10 10 12 14 12 10 9 9 9 10 12 12 11 9 7 6 6 6 6 6 6 5 4 4 3 2 2 1 1 1 1 1 1 1 1 0 0 0 0 0 0
11 11 12 12 14 15 14 12 11 10 11 12 13 13 12 10 8 7 6 6 6 6 5 4 3 2 2 2 1 1 1 0 0 0 0 0 0 0 0 0 0 0 0
13 13 14 14 15 15 15 15 14 12 11 12 13 13 11 9 8 7 6 6 6 5 4 3 2 1 1 1 1 1 0 0 0 0 0 0 0 0 0 0 0 0 0
17 17 16 17 17 17 23 26 20 12 11 13 14 12 9 8 7 7 6 5 5 4 3 3 2 1 1 0 1 1 0 0 0 0 0 0 0 0 0 0 0 0 0
19 19 20 20 19 19 28 35 23 12 12 12 12 11 8 6 5 5 4 4 3 2 2 2 1 1 0 0 0 0 0 0 0 0 0 0 0 0 0 0 0 0 0
20 20 21 20 19 18 22 24 18 11 11 11 10 9 6 5 3 3 2 2 1 1 1 1 1 1 0 0 0 0 0 0 0 0 0 0 0 0 0 0 0 0 0
21 20 19 18 16 15 14 13 11 10 10 11 10 7 5 3 2 1 1 1 1 1 1 0 0 0 0 0 0 0 0 0 0 0 0 0 0 0 0 0 0 0 0
Wind_Speed
19 18 19 16 14 12 11 12 13 13 13 12 10 10 10 11 11 12 12 12 11 11 11 10 9 9 9 9 10 10 10 10 10 11 12 12 11 10 9 7 4 11 12
22 19 19 16 14 12 11 12 13 13 13 12 11 10 10 10 11 11 11 11 10 10 10 9 9 8 8 8 8 7 7 6 6 6 8 10 10 9 10 11 11 9 11
20 18 17 16 15 13 12 12 13 13 13 13 12 11 10 10 10 10 11 10 10 10 9 9 8 7 7 6 5 5 4 2 1 1 4 5 8 9 9 11 13 11 10
19 16 16 17 15 14 13 12 13 13 14 13 12 12 11 10 10 10 10 10 9 9 8 8 7 6 5 5 4 3 2 3 3 4 4 1 6 10 9 10 10 9 8
17 15 17 17 16 15 14 13 13 13 13 13 12 12 11 10 10 9 9 9 9 8 7 7 6 5 4 3 2 1 3 6 7 8 4 0 6 10 10 8 8 7 7
18 17 17 17 16 15 14 13 13 13 13 13 12 12 11 10 9 9 9 8 8 7 7 6 5 4 3 2 1 2 5 8 9 7 2 3 7 11 10 8 7 6 5
18 18 17 16 16 15 14 13 13 13 12 12 12 11 10 10 9 8 8 8 7 7 6 5 4 3 2 0 2 4 7 9 8 7 2 4 9 13 10 8 6 5 4
18 18 16 17 16 15 14 13 12 12 12 11 11 10 10 9 8 8 7 7 7 6 6 5 4 2 1 1 3 5 8 10 9 6 3 7 12 13 10 7 6 5 4
19 19 16 15 14 14 13 12 12 11 11 10 10 10 10 9 8 8 7 7 6 6 5 4 4 3 2 4 5 7 9 11 9 5 3 7 12 12 10 7 5 4 3
18 18 16 15 14 13 12 13 12 12 11 11 10 10 9 9 8 8 8 7 7 6 5 5 4 4 5 6 8 9 10 10 8 3 4 7 11 11 9 7 5 4 4
16 16 16 16 14 13 13 13 12 12 11 10 9 10 9 7 9 8 9 11 9 7 6 6 6 7 7 9 11 11 9 6 4 3 6 11 11 11 9 7 5 5 4
16 17 16 16 15 14 12 11 9 9 9 8 8 9 7 6 5 8 11 13 11 9 8 9 9 9 8 6 9 11 5 7 4 4 6 13 11 11 9 6 5 5 5
15 13 16 16 13 13 10 10 7 6 8 8 9 10 6 5 4 5 6 7 7 8 7 7 8 7 7 5 3 4 4 4 1 5 7 11 10 10 8 6 5 5 6
15 14 14 16 12 10 10 10 7 7 7 7 7 9 6 3 2 4 4 6 5 5 5 5 5 6 5 3 1 2 2 2 2 5 6 10 10 8 7 6 5 5 6
15 13 12 14 11 6 6 7 7 6 8 7 7 6 6 4 3 3 2 2 2 2 3 1 1 1 1 1 2 2 4 4 4 5 5 8 8 7 5 5 4 5 6
15 13 11 13 12 8 5 4 4 5 5 6 6 8 7 4 4 3 3 2 1 1 2 1 1 1 1 2 3 4 4 5 5 4 4 5 6 5 4 4 3 3 5
14 13 11 11 13 10 9 6 5 5 6 5 5 7 7 4 5 4 2 2 1 1 2 2 2 2 2 2 3 3 3 3 5 5 2 2 4 5 4 3 2 0 2
14 13 12 13 14 11 8 7 5 5 6 5 5 5 6 5 5 3 2 2 2 2 2 2 3 3 3 4 3 4 4 3 4 3 3 3 1 3 4 4 3 2 1
12 12 12 11 13 13 10 7 5 4 4 4 4 5 5 5 5 4 3 3 3 2 2 2 3 2 2 3 2 2 3 3 3 3 3 3 2 1 3 5 4 3 1
10 12 11 9 11 12 9 6 4 5 4 4 4 4 5 4 4 4 3 3 3 3 3 3 3 2 2 2 3 2 2 2 1 1 2 2 1 2 0 3 4 4 5
9 10 11 10 10 9 8 8 7 5 5 4 4 5 5 5 4 4 3 3 2 2 3 4 3 2 1 1 1 2 3 3 3 2 1 2 2 2 1 1 2 1 3
7 9 9 9 10 9 7 5 5 5 4 4 4 5 4 4 4 3 3 3 3 3 3 3 2 1 1 1 1 1 2 2 2 3 3 3 3 2 2 4 2 2 2
5 7 9 8 9 9 8 6 5 5 4 4 4 4 4 5 4 4 3 3 3 2 3 3 2 2 1 1 0 1 1 2 3 1 1 2 2 2 2 3 4 4 4
7 5 6 7 8 8 8 8 8 6 5 5 5 5 6 6 6 5 5 5 4 3 3 3 3 2 2 1 1 1 1 2 1 3 3 3 3 3 4 5 5 3 3
11 9 9 9 8 7 7 8 7 6 5 6 7 8 7 7 7 7 7 6 6 6 6 6 5 4 3 2 2 1 2 1 0 2 4 4 3 3 3 4 4 4 3
14 13 12 12 12 10 9 8 7 8 8 9 8 7 7 6 7 8 8 7 7 6 6 6 5 6 4 4 3 2 1 1 1 2 3 4 5 4 4 3 3 4 4
Wind_Direction
119 127 125 121 119 120 127 136 137 133 128 123 116 107 99 93 90 90 90 92 93 96 97 93 88 80 71 64 61 61 62 63 68 76 81 82 80 75 67 57 90 92 92
122 126 124 121 120 121 126 135 137 134 132 129 124 117 109 102 98 96 95 94 95 97 98 96 92 87 80 74 69 66 64 66 77 93 107 102 92 79 62 49 66 95 94
120 126 126 123 121 121 124 130 135 136 136 135 132 126 119 112 106 103 100 98 97 98 98 97 94 90 85 80 75 68 61 51 65 142 181 130 110 91 77 73 82 90 90
123 132 129 127 124 122 122 126 131 137 139 139 137 133 128 122 114 110 106 103 101 100 99 98 95 91 86 81 74 57 359 308 295 276 250 201 123 106 92 85 87 89 88
127 130 128 132 128 125 124 126 130 135 138 139 138 136 132 127 120 116 113 110 106 104 103 102 98 95 90 81 63 359 302 294 294 281 276 117 112 118 106 99 95 94 92
133 131 135 135 132 130 129 130 132 134 136 138 139 136 134 130 127 124 121 116 112 110 108 107 104 100 94 77 10 308 295 295 298 275 258 143 125 124 119 115 110 105 101
138 132 140 138 136 135 134 134 135 136 137 138 138 138 136 133 131 129 126 122 119 116 114 113 111 107 100 36 300 292 290 292 281 288 357 136 130 131 129 128 124 120 119
137 134 140 142 142 141 141 140 138 138 138 138 139 138 136 136 135 134 132 129 128 127 125 125 127 132 163 254 275 282 284 287 279 278 154 128 135 133 133 133 135 140 139
138 135 147 149 148 146 145 143 139 136 136 137 137 138 140 142 144 145 142 139 138 138 141 147 157 177 218 248 262 270 275 280 287 281 141 125 134 132 133 137 144 150 155
141 141 153 155 155 156 155 151 146 142 141 142 144 148 149 152 159 161 160 155 153 156 163 172 188 208 229 244 252 259 267 281 269 272 97 113 123 126 131 140 153 162 167
146 146 157 156 160 166 164 156 153 152 151 153 157 162 167 183 182 180 183 159 166 173 182 193 208 221 233 239 246 253 263 258 246 114 110 128 136 133 136 145 159 171 179
155 157 159 157 164 173 166 150 165 169 164 182 175 173 195 211 195 182 160 165 176 183 192 206 218 228 235 237 234 240 252 250 238 130 127 137 138 136 141 152 168 180 190
162 165 160 159 167 171 153 155 171 176 162 194 184 176 195 201 186 148 157 166 182 192 203 204 215 229 227 229 219 208 239 275 102 109 129 132 131 134 142 159 182 195 202
166 173 166 157 164 168 157 160 167 170 163 181 174 177 180 195 184 157 168 173 186 197 204 192 212 219 232 244 248 259 278 303 74 105 129 132 131 136 148 170 197 213 218
169 174 171 156 154 156 143 155 167 164 164 167 161 173 164 170 177 163 148 148 181 158 168 201 238 306 337 319 318 330 353 354 39 93 124 131 131 137 151 175 206 225 233
168 172 170 154 147 149 144 159 151 154 144 153 153 163 171 166 156 152 137 136 187 121 120 121 92 48 4 6 5 17 16 4 15 55 106 129 131 137 152 174 200 231 244
164 164 160 157 151 157 163 177 163 164 156 158 153 156 162 164 145 140 140 145 146 85 86 79 57 42 21 28 24 18 23 17 13 20 21 119 139 136 137 135 129 125 284
165 160 161 171 159 161 167 175 175 180 161 157 149 146 148 148 133 134 138 132 104 71 57 59 49 42 28 21 19 16 14 15 13 2 352 350 71 124 132 128 113 90 3
160 156 162 169 161 165 169 168 178 166 153 141 134 132 141 146 144 138 123 105 104 98 83 81 70 61 49 24 353 18 8 2 5 342 351 342 354 46 136 149 155 159 171
151 153 158 165 159 161 164 164 175 164 145 128 119 115 130 135 133 123 121 123 122 113 107 96 90 67 60 31 338 344 334 316 311 317 311 314 320 303 301 155 175 192 202
142 151 161 169 161 161 165 171 174 168 146 129 116 118 118 113 113 115 120 123 125 126 129 129 123 113 91 72 321 291 260 240 235 226 241 282 281 276 309 290 254 212 188
140 153 158 167 165 167 162 162 159 146 130 116 105 102 103 103 108 125 125 130 126 124 132 137 131 132 133 147 170 278 293 277 242 229 205 219 245 262 261 266 244 229 231
108 152 165 168 164 163 153 141 133 117 113 115 112 98 86 91 90 80 98 98 107 126 132 131 134 152 152 138 122 154 273 305 340 313 257 256 244 253 275 289 273 248 234
53 82 121 138 144 146 144 147 149 148 146 130 117 103 88 77 77 77 79 81 82 83 94 99 88 83 112 123 89 50 49 60 341 325 316 291 269 255 248 262 273 286 273
45 57 72 79 88 107 125 131 131 128 117 109 104 101 91 78 73 72 72 73 72 73 73 72 69 63 64 75 73 57 42 20 225 257 294 313 308 281 261 249 249 252 258
44 51 66 71 69 75 85 94 103 107 108 109 108 106 96 85 76 74 76 75 75 78 77 76 71 68 66 65 56 46 41 8 319 290 290 302 301 299 296 280 258 246 242